This demonstration page uses our WeatherBlox Daily Observations layout. Learn more.

Left ArrowRight Arrow

41.55636, -103.73856

Hourly Observations for March 21, 2017

Temp ( °F °C ) Dew Point ( °F °C ) Humidity (%) Winds ( mph kmh ) Pressure ( in mb ) Visibility ( mi km ) Precip ( " mm )
12:53 am 00:53 Cloudy 45 7.2 33 0.6 63 63 ENE 12 19 30.19 1022 10 16 0.00 0.03
1:53 am 01:53 Cloudy 45 7.2 31 -0.6 58 58 ENE 13 20 30.19 1022 10 16 0.00 0.00
2:53 am 02:53 Mostly Cloudy 44 6.7 28 -2.2 53 53 E 14 22 30.14 1021 10 16 0.00 0.00
3:53 am 03:53 Clear 40 4.4 28 -2.2 63 63 E 10 17 30.15 1021 10 16 0.00 0.00
4:53 am 04:53 Clear 37 2.8 28 -2.2 70 70 SE 8 13 30.16 1022 10 16 0.00 0.00
5:53 am 05:53 Clear 33 0.6 26 -3.3 75 75 E 5 7 30.21 1023 10 16 0.00 0.00
6:53 am 06:53 Clear 32 0 27 -2.8 82 82 E 7 11 30.24 1024 10 16 0.00 0.00
7:53 am 07:53 Sunny 37 2.8 30 -1.1 76 76 ESE 9 15 30.25 1024 10 16 0.00 0.00
8:53 am 08:53 Mostly Cloudy 41 5 30 -1.1 65 65 SE 15 24 30.27 1025 10 16 0.00 0.00
9:53 am 09:53 Sunny 45 7.2 31 -0.6 58 58 SE 16 26 30.25 1025 10 16 0.00 0.00
10:53 am 10:53 Mostly Sunny 50 10 31 -0.6 48 48 SSE 22 35 30.20 1023 10 16 0.00 0.00
11:53 am 11:53 Sunny 53 11.7 31 -0.6 43 43 SSE 16 26 30.18 1022 10 16 0.00 0.00
12:53 pm 12:53 Mostly Sunny 56 13.3 31 -0.6 39 39 SSE 16 26 30.14 1021 10 16 0.00 0.00
1:53 pm 13:53 Sunny 57 13.9 33 0.6 41 41 SE 20 31 30.11 1020 10 16 0.00 0.00
2:53 pm 14:53 Sunny 61 16.1 33 0.6 35 35 SE 16 26 30.09 1019 10 16 0.00 0.00
3:53 pm 15:53 Partly Cloudy 58 14.4 32 0 38 38 SE 20 31 30.10 1019 10 16 0.00 0.00
4:53 pm 16:53 Partly Cloudy 58 14.4 33 0.6 39 39 SSE 18 30 30.09 1019 10 16 0.00 0.00
5:53 pm 17:53 Cloudy 56 13.3 32 0 40 40 SE 20 31 30.10 1019 10 16 0.00 0.00
6:53 pm 18:53 Mostly Cloudy 53 11.7 30 -1.1 41 41 SE 15 24 30.13 1020 10 16 0.00 0.03
7:53 pm 19:53 Cloudy 52 11.1 30 -1.1 43 43 SE 9 15 30.16 1021 10 16 0.00 0.03
8:53 pm 20:53 Mostly Clear 49 9.4 26 -3.3 41 41 ESE 20 31 30.15 1021 10 16 0.00 0.03
9:53 pm 21:53 Clear 48 8.9 24 -4.4 39 39 SE 16 26 30.15 1021 10 16 0.00 0.00
10:53 pm 22:53 Mostly Clear 41 5 29 -1.7 62 62 ESE 22 35 30.17 1022 10 16 0.00 0.00
11:53 pm 23:53 Clear 37 2.8 31 -0.6 79 79 ESE 23 37 30.16 1021 10 16 0.00 0.00

Powered by AerisWeather